[Date Prev][Date Next][Thread Prev][Thread Next] - [Date Index][Thread Index][Author Index]
2 Line ISS Keps 9-1
- Subject: [sarex] 2 Line ISS Keps 9-1
- From: "Dave Larsen PhD" <doc@xxxxxxxxxxx>
- Date: Mon, 1 Sep 2003 05:05:42 -0700
ISS
1 25544U 98067A 03244.30560742 .00023963 00000-0 27525-3 0 4318
2 25544 51.6338 356.9648 0006853 190.5869 264.7512 15.61888286272897
----
Via the sarex mailing list at AMSAT.ORG courtesy of AMSAT-NA.
To unsubscribe, send "unsubscribe sarex" to Majordomo@amsat.org
AMSAT Home